Regional Weather Roundup
Issued by NWS

Home | Current Version | Previous Version | Graphics & Text | Print | Product List | Glossary On
Versions: 1 2 3 4 5 6 7 8 9 10 11 12 13 14 15 16 17 18 19 20 21 22 23 24 25 26 27 28 29 30 31 32 33 34 35 36 37 38 39 40 41 42 43 44 45 46 47 48 49 50
000
ASUS43 KDMX 280207
RWRIA

WEATHER ROUNDUP FOR IOWA
NATIONAL WEATHER SERVICE DES MOINES IA
800 PM CST TUE JAN 27 2015

NOTE: "FAIR" INDICATES FEW OR NO CLOUDS BELOW 12,000 FEET WITH NO
SIGNIFICANT WEATHER AND/OR OBSTRUCTIONS TO VISIBILITY.

* - THESE STATIONS ARE NOT NWS STATIONS...THUS NOT UNDER NWS
QUALITY CONTROL.  THEY ALSO DO NOT REPORT WEATHER SUCH
AS PRECIPITATION OR FOG.

IAZ001>003-012>014-020>022-031>034-043>046-280300-
   NORTHWEST IOWA

CITY           SKY/WX    TMP DP  RH WIND       PRES   REMARKS
CARROLL *      CLEAR     34  30  86 SE9       30.08S WCI  26
CHEROKEE *     CLEAR     36  34  93 S8        30.05S WCI  29
DENISON *      CLEAR     37  34  87 SE6       30.04F WCI  33
LE MARS *      CLEAR     37  34  87 SE12      30.02F WCI  30
ORANGE CITY *  CLEAR     37  34  87 SE9       30.02S WCI  31
SHELDON *      CLEAR     36  36 100 SE13      30.01S WCI  27
SIOUX CITY     CLEAR     37  31  78 SE9       30.02S WCI  30
SPENCER          N/A     35  31  85 SE10      30.05F WCI  27
STORM LAKE *   CLEAR     36  32  87 SE16      30.05F WCI  26
$$

IAZ055>058-069>071-079>083-090>094-280300-
   SOUTHWEST IOWA

CITY           SKY/WX    TMP DP  RH WIND       PRES   REMARKS
ATLANTIC *     CLEAR     37  30  75 CALM      30.08S
AUDUBON *      CLEAR     36  30  80 S3        30.09S
CLARINDA *     CLEAR     41  30  65 SE8       30.10S
COUNCIL BLFS * CLEAR     39  30  70 SE9       30.04S WCI  33
CRESTON *      PTCLDY    34  30  86 SE8       30.11R WCI  27
HARLAN  *      CLEAR     37  34  87 SE3       30.10F
LAMONI         CLEAR     38  29  70 SE6       30.11S WCI  33
RED OAK *      CLEAR     39  28  65 E6        30.08S WCI  35
SHENANDOAH *   CLEAR     39  30  70 SE8       30.07F WCI  34
$$

IAZ047>049-059>061-072>074-084-280300-
   CENTRAL IOWA

CITY           SKY/WX    TMP DP  RH WIND       PRES   REMARKS
AMES           CLEAR     31  27  85 SE9       30.13F WCI  23
ANKENY *       CLEAR     32  28  86 SE10      30.14F WCI  24
CHARITON *     CLEAR     32  30  93 SE10      30.14S WCI  24
DES MOINES     CLEAR     34  28  79 SE9       30.14F WCI  27
GRINNELL*      PTCLDY    30  28  93 E10       30.17S WCI  21
KNOXVILLE *    CLEAR     32  28  86 SE9       30.14F WCI  24
MARSHALLTOWN   CLOUDY    31  27  85 SE14      30.15F WCI  21
PELLA *        CLEAR     30  28  93 SE8       30.17F WCI  23
PERRY *          N/A     34  32  93 SE12      30.11S WCI  25
$$

IAZ004>006-015-016-023>025-035-036-280300-
   NORTH CENTRAL IOWA

CITY           SKY/WX    TMP DP  RH WIND       PRES   REMARKS
ALGONA *       CLEAR     32  32 100 SE13G20   30.09S WCI  22
CLARION *      CLEAR     32  32 100 SE15      30.11S WCI  22
ESTHERVILLE    CLEAR     32  31  96 SE16      30.06R WCI  21
FORT DODGE *   CLEAR     34  27  75 SE10      30.11S WCI  26
MASON CITY     CLOUDY    31  27  85 SE16      30.14S WCI  20
FOREST CITY *  CLOUDY    32  28  86 SE15      30.12S WCI  22
IOWA FALLS *   CLOUDY    32  28  86 SE13      30.15S WCI  22
$$

IAZ007>011-017>019-026>030-037>042-050>054-066-280300-
   NORTHEAST IOWA

CITY           SKY/WX    TMP DP  RH WIND       PRES   REMARKS
CEDAR RAPIDS   CLOUDY    29  25  85 SE7       30.20R WCI  22
CHARLES CITY * CLOUDY    30  28  93 SE9G17    30.16F WCI  22
CLINTON *      CLOUDY    27  21  80 CALM      30.27R
DECORAH *      CLOUDY    28  23  80 S7        30.16F WCI  21
DUBUQUE        CLOUDY    25  21  85 S6        30.21R WCI  18
MONTICELLO *   CLOUDY    27  25  93 SE8       30.21S WCI  18
OELWEIN *      CLOUDY    30  25  80 S8G15     30.19S WCI  23
WATERLOO       CLOUDY    30  25  81 SE10      30.18R WCI  21
$$

IAZ064-065-067-068-078-280300-
   EAST CENTRAL IOWA

CITY           SKY/WX    TMP DP  RH WIND       PRES   REMARKS
DAVENPORT      CLOUDY    26  20  77 SE6       30.23F WCI  19
IOWA CITY      CLOUDY    29  23  78 SE8       30.23F WCI  21
MT. PLEASANT * CLOUDY    30  27  86 E6        30.21F WCI  24
MUSCATINE *    CLOUDY    30  23  74 SE5       30.23F WCI  25
QUAD CITIES    CLOUDY    27  22  81 S3        30.23F
$$

IAZ062-063-075>077-085>089-095>099-280300-
   SOUTHEAST IOWA

CITY           SKY/WX    TMP DP  RH WIND       PRES   REMARKS
BURLINGTON     CLOUDY    29  25  85 E7        30.21F WCI  22
FAIRFIELD *    CLOUDY    30  27  86 E10       30.20S WCI  21
FORT MADISON * CLOUDY    28  27  93 E8        30.22S WCI  20
KEOKUK *       CLOUDY    30  28  93 E9        30.21S WCI  22
OSKALOOSA *      N/A     30  27  86 SE8       30.19S WCI  23
CENTERVILLE *  CLEAR     32  30  93 E10       30.17S WCI  24
OTTUMWA        CLEAR     29  26  89 E8        30.18S WCI  21
WASHINGTON *   CLOUDY    30  30 100 SE10      30.21F WCI  21
$$

ABBREVIATIONS USED IN REMARKS
   TC - TEMPERATURES IN CELSIUS
  WCI - WIND CHILL INDEX
   HX - HEAT INDEX
  VSB - VISIBILITY
$$




USA.gov is the U.S. government's official web portal to all federal, state and local government web resources and services.